Regional Weather Roundup
Issued by NWS Grand Forks, ND

Home | Current Version | Previous Version | Graphics & Text | Print | Product List | Glossary On
Versions: 1 2 3 4 5 6 7 8 9 10 11 12 13 14 15 16 17 18 19 20 21 22 23 24 25 26 27 28 29 30 31 32 33 34 35 36 37 38 39 40 41 42 43 44 45 46 47 48 49 50
000
ASUS43 KFGF 081831
RWRFGF
PRAIRIE TO PINES  WEATHER ROUNDUP
NATIONAL WEATHER SERVICE EASTERN NORTH DAKOTA/GRAND FORKS ND
1200 PM CST THU DEC 08 2016

 **SATELLITE DATA USED TO AUGMENT SKY COVER AT AUTOMATED STATIONS**
 *****  WEATHER ACROSS EASTERN NORTH DAKOTA  *****

CITY           SKY/WX    TMP DP  RH WIND       PRES   REMARKS
GRAND FORKS    LGT SNOW  16  11  80 NW21      30.53S VSB 3/4 WCI  -1
6HR MIN TEMP:  15; 6HR MAX TEMP:  16; 6HR PCP: TRACE;

GRAND FRKS AFB LGT SNOW  14   8  77 N17       30.53S WCI  -3
DEVILS LAKE    CLOUDY     4  -1  80 NW17      30.56R WCI -16
6HR MIN TEMP:   3; 6HR MAX TEMP:   7; 6HR PCP: TRACE;

FARGO          LGT SNOW  17  10  74 NW21      30.53R WCI   0
WAHPETON ARPT  CLOUDY    14   9  79 NW22G28   30.53S WCI  -4
$$

 ***** WEATHER ACROSS CENTRAL AND WESTERN NORTH DAKOTA  *****

CITY           SKY/WX    TMP DP  RH WIND       PRES   REMARKS
BISMARCK       MOSUNNY    4  -3  73 NW16      30.64F WCI -15
6HR MIN TEMP:   0; 6HR MAX TEMP:   4; 6HR PCP: TRACE;

MINOT          MOSUNNY    0  -6  76 W15       30.62S HAZE    WCI -19
6HR MIN TEMP:  -2; 6HR MAX TEMP:   2; 6HR PCP: TRACE;

JAMESTOWN      PTSUNNY    5   0  79 NW21      30.56S WCI -16
6HR MIN TEMP:   4; 6HR MAX TEMP:   5; 6HR PCP: TRACE;

MINOT AFB      SUNNY     -2  -8  74 NW17      30.61F WCI -24
GARRISON         N/A      0  -7  72 NW22G28   30.61F WCI -23
WILLISTON      MOSUNNY   -2 -10  69 NW10      30.67F WCI -19
6HR MIN TEMP:  -5; 6HR MAX TEMP:   1;

DICKINSON      CLOUDY    -2  -8  76 NW17      30.56F WCI -23
6HR MIN TEMP:  -9; 6HR MAX TEMP:  -1;

HETTINGER      PTSUNNY    0  -6  76 NW15      30.58F WCI -19
6HR MIN TEMP:  -9; 6HR MAX TEMP:   0;

$$

 *****  OTHER AIRPORT OBSERVATIONS IN OUR AREA  *****

CITY           SKY/WX    TMP DP  RH WIND       PRES   REMARKS
WALHALLA         N/A     12  12 100 NW17      30.55S WCI  -5
GRAFTON AIRPOR LGT SNOW  14  10  85 NW15G23   30.56R WCI  -1
VALLEY CITY AR FLURRIES   7   3  85 NW20      30.56S WCI -13
CANDO          FAIR       5   0  78 W16       30.58F WCI -14
CAVALIER APRT    N/A     14   9  79 NW17G23   30.55R HAZE    WCI  -3
GWINNER        CLOUDY    14   9  79 NW18      30.56S WCI  -3
SHEYENNE NWR     N/A     11   3  70 NW14      29.95S WCI  -5
ROLLA          CLOUDY     5   0  78 NW18      30.53S WCI -15
 ***** THE ABOVE OBSERVATIONS ARE NON NWS ARE NOT QUALITY
       CONTROLLED AND MAY MIS-REPORT RAIN FOR SNOW...
$$

  *****  WEATHER ACROSS NORTHERN MINNESOTA  *****

CITY           SKY/WX    TMP DP  RH WIND       PRES   REMARKS
FLAG ISLAND    MOSUNNY   18   9  68 NW21      30.40S WCI   1
WARROAD        CLOUDY    18  10  73 NW10G17   30.43S WCI   6
ROSEAU         CLOUDY    18  12  79 NW10      30.45R WCI   6
HALLOCK        CLOUDY    16  12  86 N16G22    30.52R WCI   0
THF RVR FALLS  FLURRIES  18  14  84 N16       30.46R WCI   3
6HR MIN TEMP:  14; 6HR MAX TEMP:  18; 6HR PCP: TRACE;

BAUDETTE       FLURRIES  20  12  71 NW18      30.37S WCI   5
6HR MIN TEMP:  19; 6HR MAX TEMP:  21; 6HR PCP: TRACE;

WASKISH        CLOUDY    21  14  73 NW10G16   30.37S WCI  10
CROOKSTON      LGT SNOW  16  12  86 N22       30.51R WCI  -2
STEPHEN NDAWN    N/A     14  12  92 NW18        N/A  WCI  -3
GREENBUSH NDAW   N/A     16  14  93 NW13        N/A  WCI   2
$$
  *****  WEATHER ACROSS CENTRAL AND WEST MINNESOTA  *****

CITY           SKY/WX    TMP DP  RH WIND       PRES   REMARKS
FOSSTON        LGT SNOW  16  10  79 NW12      30.44R WCI   3
BEMIDJI        FLURRIES  17  12  79 NW12      30.38R WCI   4
PARK RAPIDS    FLURRIES  17   8  67 NW16      30.38R WCI   2
6HR MIN TEMP:  14; 6HR MAX TEMP:  18; 6HR PCP: TRACE;

ELBOW LAKE     LGT SNOW  14  10  86 W20G25    30.48S WCI  -4
WADENA         MIX PCPN  16   9  73 NW18      30.40S WCI  -1
DETROIT LAKES  LGT SNOW  16  12  86 NW16G25   30.44S WCI   0
MOORHEAD       MIX PCPN  16  10  79 NW22      30.52S WCI  -2
FERGUS FALLS   LGT SNOW  14  10  85 NW22      30.53S WCI  -4
MORRIS MN      LGT SNOW  16  10  79 NW22G29   30.48F WCI  -2
STAPLES        FLURRIES  16  10  79 NW16      30.39S WCI   0
$$
  *****  WEATHER ELSEWHERE ACROSS MINNESOTA  *****

CITY           SKY/WX    TMP DP  RH WIND       PRES   REMARKS
DULUTH         PTSUNNY   21  15  78 N17G26    30.23R WCI   7
6HR MIN TEMP:  19; 6HR MAX TEMP:  21; 6HR PCP: TRACE;

INTRNTL FALLS  PTSUNNY   21  12  68 NW18      30.31R WCI   6
6HR MIN TEMP:  17; 6HR MAX TEMP:  22; 6HR PCP:  0.01;

ELY            CLOUDY    19  14  79 NW13G18   30.23S WCI   7
CLOQUET        CLOUDY    21  14  73 NW15      30.26S WCI   8
WHEATON        CLOUDY    16  10  79 W15G25    30.55S WCI   1
BRAINERD       CLOUDY    19  11  70 NW14      30.36R WCI   6
6HR MIN TEMP:  17; 6HR MAX TEMP:  20;

HIBBING        CLOUDY    19  13  77 NW15      30.27S WCI   5
6HR MIN TEMP:  16; 6HR MAX TEMP:  19; 6HR PCP: TRACE;

ALEXANDRIA     LGT SNOW  16  11  80 NW22      30.43R WCI  -2
6HR MIN TEMP:  15; 6HR MAX TEMP:  17; 6HR PCP: TRACE;

SAINT CLOUD    FLURRIES  21  13  71 NW14      30.39R WCI   8
6HR MIN TEMP:  18; 6HR MAX TEMP:  21; 6HR PCP: TRACE;

MINNEAPOLIS    FLURRIES  23  13  65 NW20G28   30.37R WCI   8
6HR MIN TEMP:  17; 6HR MAX TEMP:  24; 6HR PCP: TRACE;

$$

  *****  WEATHER ACROSS SOUTH DAKOTA  *****

CITY           SKY/WX    TMP DP  RH WIND       PRES   REMARKS
SIOUX FALLS    MOSUNNY   16   7  67 NW20G29   30.55F WCI  -1
6HR MIN TEMP:   7; 6HR MAX TEMP:  16;

BROOKINGS      FLURRIES  12   6  77 NW20      30.51S WCI  -6
WATERTOWN      CLOUDY    11   5  77 NW20G25   30.51S WCI  -7
6HR MIN TEMP:   5; 6HR MAX TEMP:  11;

HURON          CLOUDY    14   5  67 NW18      30.62F WCI  -3
6HR MIN TEMP:   5; 6HR MAX TEMP:  14;

SISSETON         N/A     14   7  73 NW26      30.53S WCI  -6
ABERDEEN       CLOUDY    14   4  64 NW18      30.61S WCI  -3
6HR MIN TEMP:   8; 6HR MAX TEMP:  14;

MITCHELL       SUNNY     17   5  59 NW17      30.64F WCI   1
PIERRE         SUNNY      7   1  76 NW21      30.65F WCI -13
6HR MIN TEMP:   5; 6HR MAX TEMP:   7;

MOBRIDGE       SUNNY      4  -6  63 NW14      30.62F WCI -14
RAPID CITY     SUNNY      9  -3  58 CALM      30.56F
6HR MIN TEMP:  -5; 6HR MAX TEMP:   9;

$$

  *****  SOME WEATHER IN NEARBY STATES *****

CITY           SKY/WX    TMP DP  RH WIND       PRES   REMARKS
GLASGOW MT     SUNNY      1  -7  68 W8        30.65S WCI -13
6HR MIN TEMP:  -9; 6HR MAX TEMP:   1;

GREAT FALLS MT CLOUDY    -1  -8  72 CALM      30.47F
6HR MIN TEMP:  -3; 6HR MAX TEMP:  -1;

CHEYENNE WY    SUNNY     10   1  67 S8        30.30F WCI  -2
6HR MIN TEMP: -15; 6HR MAX TEMP:  10;

SCOTTSBLUFF NE SUNNY      8  -3  61 W3        30.51F
6HR MIN TEMP: -10; 6HR MAX TEMP:   8;

OMAHA NE       MOSUNNY   21   7  54 NW18G24   30.61F WCI   6
6HR MIN TEMP:  11; 6HR MAX TEMP:  21;

DES MOINES IA  PTSUNNY   21   8  57 NW22G28   30.51F WCI   5
6HR MIN TEMP:  12; 6HR MAX TEMP:  22;

DAVENPORT IA   CLOUDY    20  12  71 W22       30.40F WCI   3
6HR MIN TEMP:  14; 6HR MAX TEMP:  20; 6HR PCP: TRACE;

CHICAGO IL     PTSUNNY   19  11  70 W18G29    30.27S WCI   4
6HR MIN TEMP:  17; 6HR MAX TEMP:  20; 6HR PCP: TRACE;

EAU CLAIRE WI  CLOUDY    24  15  68 NW12      30.28R WCI  13
6HR MIN TEMP:  18; 6HR MAX TEMP:  24; 6HR PCP: TRACE;

LA CROSSE WI   CLOUDY    25  16  68 NW17      30.32R WCI  12
6HR MIN TEMP:  19; 6HR MAX TEMP:  25; 6HR PCP: TRACE;

$$

  *****  SOME NATIONAL WEATHER *****

CITY           SKY/WX    TMP DP  RH WIND       PRES   REMARKS
LA GUARDIA NY  PTSUNNY   44  21  40 W16G22    29.89F
6HR MIN TEMP:  43; 6HR MAX TEMP:  45;

RALEIGH NC     CLOUDY    50  22  33 NW9       30.09F
6HR MIN TEMP:  48; 6HR MAX TEMP:  51;

ATLANTA GA     CLOUDY    45  22  40 NW18G24   30.25F
6HR MIN TEMP:  42; 6HR MAX TEMP:  48;

NEW ORLEANS LA CLOUDY    51  44  77 N15G22    30.32F
6HR MIN TEMP:  51; 6HR MAX TEMP:  56; 6HR PCP: TRACE;

OKLAHOMA CITY  MOSUNNY   30   8  39 N15G24    30.67F WCI  19
6HR MIN TEMP:  21; 6HR MAX TEMP:  30;

ALBUQUERQUE NM MOSUNNY   31  14  49 CALM      30.40F
6HR MIN TEMP:  23; 6HR MAX TEMP:  31;

SALT LAKE CITY CLOUDY    28   6  39 E6        30.26R WCI  22
6HR MIN TEMP:  21; 6HR MAX TEMP:  28;

LOS ANGELES CA MOSUNNY   63  43  48 CALM      30.26R
6HR MIN TEMP:  50; 6HR MAX TEMP:  63;

BOISE ID       CLOUDY  C1F1C2F2C3F3C4F4C5F5C6F6C7F7C8F8C9F9CaFaCbFbCcFcCd!


USA.gov is the U.S. government's official web portal to all federal, state and local government web resources and services.